Location: Erp
(42.9417°N, 1.2009°E)
Time: 05:35:09
(UTC+00:00)

SL-16 R/B - Pass Details

Date: 12 January 2026
Orbit: 842 x 846 km, 71.0° (Epoch: 10 February)

Event Time Altitude Azimuth Distance (km) Brightness Sun altitude
Rises 17:45:12 0° 228° (SW) 3,391 6.7 -11.3°
Reaches altitude 10° 17:47:50 10° 237° (WSW) 2,459 6.0 -11.7°
Maximum altitude 17:53:01 37° 303° (WNW) 1,300 3.6 -12.6°
Drops below altitude 10° 17:58:14 10° 10° (N) 2,470 4.4 -13.5°
Enters shadow 18:00:34 - 18° (NNE) 3,294 4.9 -14.0°
